| time (UTC) | temp F | wind direction | speed MPH | gust MPH | rain 1hr in | rain 24hr in | rain mn in | humidity % | barometer mb |
| 20260905131530 | 81 | 56 | 0.0 | 2.0 | 0.00 | 0.68 | 0.00 | 92 | 1015.6 |
| 20260905130041 | 80 | 19 | 3.0 | 6.0 | 0.00 | 0.68 | 0.00 | 92 | 1015.6 |
| 20260905124538 | 79 | 83 | 0.0 | 2.0 | 0.00 | 0.68 | 0.00 | 91 | 1015.4 |
| 20260905123041 | 79 | 84 | 2.0 | 5.0 | 0.00 | 0.68 | 0.00 | 91 | 1015.1 |
| 20260905121550 | 79 | 86 | 0.0 | 2.0 | 0.00 | 0.68 | 0.00 | 91 | 1014.9 |
| 20260905120058 | 78 | 86 | 0.0 | 0.0 | 0.00 | 0.68 | 0.00 | 91 | 1014.7 |
| 20260905114508 | 79 | 86 | 0.0 | 0.0 | 0.00 | 0.68 | 0.00 | 91 | 1014.7 |
| 20260905113012 | 79 | 86 | 0.0 | 0.0 | 0.00 | 0.68 | 0.00 | 91 | 1014.5 |
| 20260905111520 | 79 | 86 | 0.0 | 4.0 | 0.00 | 0.68 | 0.00 | 91 | 1014.5 |
| 20260905110028 | 80 | 86 | 3.0 | 6.0 | 0.00 | 0.68 | 0.00 | 91 | 1014.3 |
| 20260905104531 | 80 | 163 | 4.0 | 7.0 | 0.00 | 0.68 | 0.00 | 91 | 1014.0 |
| 20260905103038 | 80 | 126 | 2.0 | 6.0 | 0.00 | 0.68 | 0.00 | 91 | 1014.2 |
| 20260905101526 | 80 | 140 | 3.0 | 8.0 | 0.00 | 0.68 | 0.00 | 91 | 1014.1 |
| 20260905100032 | 80 | 227 | 1.0 | 8.0 | 0.00 | 0.68 | 0.00 | 91 | 1014.2 |
| 20260905094534 | 80 | 128 | 3.0 | 7.0 | 0.00 | 0.68 | 0.00 | 91 | 1014.2 |
| 20260905093044 | 79 | 190 | 0.0 | 5.0 | 0.00 | 0.68 | 0.00 | 91 | 1014.2 |
| 20260905091554 | 79 | 132 | 3.0 | 5.0 | 0.00 | 0.68 | 0.00 | 91 | 1014.1 |
| 20260905090008 | 79 | 69 | 3.0 | 6.0 | 0.00 | 0.68 | 0.00 | 91 | 1014.3 |
| 20260905084548 | 79 | 125 | 0.0 | 4.0 | 0.00 | 0.68 | 0.00 | 91 | 1014.0 |
| 20260905083057 | 79 | 127 | 0.0 | 1.0 | 0.00 | 0.68 | 0.00 | 91 | 1014.2 |
| 20260905083007 | 79 | 128 | 0.0 | 1.0 | 0.00 | 0.68 | 0.00 | 91 | 1014.2 |
| 20260905081552 | 79 | 227 | 0.0 | 2.0 | 0.00 | 0.68 | 0.00 | 91 | 1014.0 |
| 20260905080054 | 79 | 175 | 0.0 | 4.0 | 0.00 | 0.68 | 0.00 | 91 | 1014.0 |
| 20260905074504 | 79 | 202 | 0.0 | 5.0 | 0.00 | 0.68 | 0.00 | 91 | 1014.0 |
| 20260905073015 | 79 | 115 | 4.0 | 8.0 | 0.00 | 0.68 | 0.00 | 92 | 1014.2 |
| 20260905071520 | 79 | 113 | 7.0 | 10.0 | 0.00 | 0.68 | 0.00 | 92 | 1014.3 |
| 20260905070027 | 79 | 120 | 9.0 | 11.0 | 0.00 | 0.68 | 0.00 | 92 | 1014.4 |
| 20260905064536 | 79 | 115 | 7.0 | 11.0 | 0.00 | 0.68 | 0.00 | 92 | 1014.5 |
| 20260905063022 | 80 | 119 | 7.0 | 9.0 | 0.00 | 0.68 | 0.00 | 91 | 1014.6 |
| 20260905061536 | 80 | 115 | 7.0 | 9.0 | 0.00 | 0.68 | 0.00 | 91 | 1014.8 |
| 20260905060030 | 80 | 100 | 5.0 | 8.0 | 0.00 | 0.68 | 0.00 | 91 | 1014.8 |
| 20260905054538 | 80 | 113 | 7.0 | 9.0 | 0.00 | 0.68 | 0.00 | 91 | 1014.8 |
| 20260905053042 | 80 | 117 | 7.0 | 9.0 | 0.00 | 0.68 | 0.00 | 91 | 1014.9 |
| 20260905051543 | 80 | 115 | 6.0 | 9.0 | 0.00 | 0.68 | 0.00 | 91 | 1014.9 |
| 20260905050046 | 80 | 119 | 9.0 | 11.0 | 0.00 | 0.68 | 0.00 | 91 | 1014.9 |
| 20260905044553 | 80 | 117 | 8.0 | 11.0 | 0.00 | 0.68 | 0.68 | 91 | 1014.9 |
| 20260905043059 | 80 | 119 | 8.0 | 11.0 | 0.00 | 0.68 | 0.68 | 90 | 1014.9 |
| 20260905043001 | 80 | 121 | 8.0 | 11.0 | 0.00 | 0.68 | 0.68 | 90 | 1014.9 |
| 20260905041600 | 80 | 125 | 7.0 | 8.0 | 0.00 | 0.68 | 0.68 | 90 | 1015.0 |
| 20260905040048 | 81 | 135 | 5.0 | 7.0 | 0.00 | 0.68 | 0.68 | 89 | 1015.1 |
| 20260905034506 | 81 | 144 | 6.0 | 9.0 | 0.00 | 0.68 | 0.68 | 89 | 1015.1 |
| 20260905033016 | 81 | 127 | 4.0 | 7.0 | 0.00 | 0.68 | 0.68 | 88 | 1015.4 |
| 20260905031520 | 81 | 121 | 4.0 | 7.0 | 0.00 | 0.68 | 0.68 | 88 | 1015.4 |
| 20260905030027 | 82 | 132 | 6.0 | 8.0 | 0.00 | 0.68 | 0.68 | 87 | 1015.3 |
| 20260905024532 | 82 | 145 | 5.0 | 8.0 | 0.00 | 0.68 | 0.68 | 87 | 1015.4 |
| 20260905023033 | 82 | 159 | 5.0 | 9.0 | 0.00 | 0.68 | 0.68 | 87 | 1015.1 |
| 20260905021543 | 82 | 132 | 3.0 | 6.0 | 0.00 | 0.68 | 0.68 | 86 | 1014.8 |
| 20260905020054 | 83 | 133 | 4.0 | 9.0 | 0.00 | 0.68 | 0.68 | 86 | 1014.6 |
| 20260905014506 | 83 | 124 | 5.0 | 8.0 | 0.00 | 0.68 | 0.68 | 85 | 1014.4 |
| 20260905013012 | 83 | 144 | 3.0 | 7.0 | 0.00 | 0.68 | 0.68 | 85 | 1014.4 |
| 20260905011526 | 84 | 138 | 3.0 | 7.0 | 0.00 | 0.68 | 0.68 | 84 | 1014.2 |
| 20260905010012 | 84 | 132 | 3.0 | 5.0 | 0.00 | 0.68 | 0.68 | 83 | 1014.0 |
| 20260905004511 | 85 | 132 | 4.0 | 9.0 | 0.00 | 0.68 | 0.68 | 82 | 1014.0 |
| 20260905003056 | 86 | 147 | 6.0 | 10.0 | 0.00 | 0.68 | 0.68 | 82 | 1013.7 |
| 20260905001605 | 86 | 127 | 7.0 | 10.0 | 0.00 | 0.68 | 0.68 | 81 | 1013.6 |
| 20260905001505 | 86 | 132 | 7.0 | 10.0 | 0.00 | 0.68 | 0.68 | 81 | 1013.6 |
| 20260905000053 | 87 | 132 | 5.0 | 12.0 | 0.00 | 0.68 | 0.68 | 81 | 1013.5 |
| 20260904234601 | 87 | 125 | 7.0 | 12.0 | 0.00 | 0.68 | 0.68 | 81 | 1013.6 |
| 20260904233100 | 87 | 98 | 8.0 | 11.0 | 0.00 | 0.68 | 0.68 | 81 | 1013.5 |
| 20260904233003 | 87 | 121 | 7.0 | 9.0 | 0.00 | 0.68 | 0.68 | 82 | 1013.6 |
| 20260904231511 | 86 | 115 | 4.0 | 8.0 | 0.00 | 0.68 | 0.68 | 82 | 1013.7 |
| 20260904230016 | 85 | 123 | 5.0 | 8.0 | 0.00 | 0.68 | 0.68 | 82 | 1013.5 |
| 20260904224523 | 85 | 128 | 5.0 | 8.0 | 0.00 | 0.68 | 0.68 | 82 | 1013.7 |
| 20260904223038 | 85 | 132 | 6.0 | 10.0 | 0.00 | 0.68 | 0.68 | 82 | 1013.7 |
| 20260904221549 | 86 | 126 | 7.0 | 11.0 | 0.00 | 0.68 | 0.68 | 82 | 1013.7 |
| 20260904220028 | 88 | 123 | 9.0 | 13.0 | 0.00 | 0.68 | 0.68 | 79 | 1013.5 |
| 20260904214532 | 89 | 113 | 6.0 | 8.0 | 0.00 | 0.68 | 0.68 | 79 | 1013.7 |
| 20260904213041 | 89 | 169 | 5.0 | 11.0 | 0.00 | 0.68 | 0.68 | 80 | 1013.9 |
| 20260904211542 | 88 | 205 | 4.0 | 9.0 | 0.00 | 0.68 | 0.68 | 81 | 1014.0 |
| 20260904210042 | 88 | 121 | 4.0 | 10.0 | 0.00 | 0.68 | 0.68 | 85 | 1014.3 |
| 20260904204553 | 87 | 127 | 5.0 | 9.0 | 0.00 | 0.68 | 0.68 | 84 | 1014.4 |
| 20260904203055 | 87 | 102 | 5.0 | 7.0 | 0.00 | 0.68 | 0.68 | 87 | 1014.7 |
| 20260904201505 | 87 | 116 | 5.0 | 9.0 | 0.00 | 0.68 | 0.68 | 88 | 1014.7 |
| 20260904200010 | 86 | 113 | 3.0 | 7.0 | 0.00 | 0.69 | 0.68 | 89 | 1015.0 |
| 20260904194513 | 85 | 97 | 2.0 | 7.0 | 0.00 | 0.69 | 0.68 | 89 | 1015.3 |
| 20260904193023 | 85 | 119 | 2.0 | 6.0 | 0.00 | 0.69 | 0.68 | 90 | 1015.3 |
| 20260904191531 | 84 | 137 | 0.0 | 5.0 | 0.00 | 0.69 | 0.68 | 91 | 1015.4 |
| 20260904190044 | 83 | 32 | 0.0 | 5.0 | 0.00 | 0.69 | 0.68 | 91 | 1015.6 |
| 20260904184552 | 82 | 75 | 0.0 | 5.0 | 0.01 | 0.78 | 0.68 | 91 | 1015.9 |
| 20260904183055 | 82 | 70 | 2.0 | 5.0 | 0.01 | 0.78 | 0.68 | 91 | 1016.3 |
| 20260904181612 | 81 | 18 | 4.0 | 9.0 | 0.01 | 0.78 | 0.68 | 91 | 1016.6 |
| 20260904181518 | 81 | 18 | 4.0 | 9.0 | 0.01 | 0.78 | 0.68 | 91 | 1016.7 |
| 20260904180055 | 80 | 117 | 4.0 | 10.0 | 0.01 | 0.78 | 0.68 | 91 | 1016.6 |
| 20260904174557 | 79 | 139 | 4.0 | 8.0 | 0.00 | 0.88 | 0.67 | 91 | 1016.8 |
| 20260904173007 | 79 | 100 | 5.0 | 7.0 | 0.01 | 0.88 | 0.67 | 91 | 1016.9 |
| 20260904171529 | 79 | 122 | 6.0 | 9.0 | 0.05 | 0.88 | 0.67 | 92 | 1016.8 |
| 20260904170021 | 78 | 57 | 0.0 | 0.0 | 0.35 | 0.88 | 0.67 | 90 | 1016.7 |
| 20260904164525 | 77 | 57 | 3.0 | 6.0 | 0.66 | 0.88 | 0.67 | 90 | 1016.8 |
| 20260904163017 | 77 | 90 | 3.0 | 8.0 | 0.66 | 0.87 | 0.66 | 90 | 1016.9 |
| 20260904161523 | 78 | 105 | 2.0 | 9.0 | 0.62 | 0.83 | 0.62 | 90 | 1017.1 |
| 20260904160030 | 80 | 105 | 8.0 | 13.0 | 0.32 | 0.53 | 0.34 | 90 | 1017.3 |
| 20260904154533 | 83 | 83 | 2.0 | 11.0 | 0.01 | 0.22 | 0.01 | 88 | 1016.5 |
| 20260904153023 | 86 | 207 | 0.0 | 10.0 | 0.00 | 0.21 | 0.00 | 88 | 1016.1 |
| 20260904151533 | 86 | 230 | 5.0 | 10.0 | 0.00 | 0.21 | 0.00 | 87 | 1015.8 |
| 20260904150033 | 86 | 179 | 2.0 | 11.0 | 0.00 | 0.21 | 0.00 | 88 | 1015.9 |
| 20260904144537 | 86 | 121 | 7.0 | 12.0 | 0.00 | 0.21 | 0.00 | 87 | 1015.8 |
| 20260904143037 | 86 | 167 | 2.0 | 10.0 | 0.00 | 0.21 | 0.00 | 89 | 1015.8 |
| 20260904141544 | 85 | 121 | 5.0 | 9.0 | 0.00 | 0.21 | 0.00 | 90 | 1015.7 |
| 20260904140045 | 85 | 159 | 6.0 | 9.0 | 0.00 | 0.21 | 0.00 | 90 | 1015.6 |
| 20260904134557 | 84 | 122 | 5.0 | 8.0 | 0.00 | 0.21 | 0.00 | 92 | 1015.7 |
| 20260904133100 | 83 | 124 | 4.0 | 7.0 | 0.00 | 0.21 | 0.00 | 92 | 1015.6 |